Weather History for Torrington, WY

Change the Weather History Date:

Tuesday, December 4, 2012

  Actual Average Record
Temperature  
Mean Temperature 39 °F 28 °F  
Max Temperature 57 °F 41 °F 62 °F (2007)
Min Temperature 20 °F 16 °F -7 °F (2009)
Degree Days  
Heating Degree Days 26 37  
Month to date heating degree days 71 145  
Since 1 July heating degree days 1414 1728  
Cooling Degree Days 0 0  
Month to date cooling degree days 0 0  
Year to date cooling degree days 1021 678  
Moisture  
Dew Point 17 °F    
Average Humidity 43    
Maximum Humidity 74    
Minimum Humidity 12    
Precipitation  
Precipitation 0.00 in 0.02 in 0.01 in (2002)
Month to date precipitation 0.00 0.06  
Year to date precipitation 7.00 13.90  
Sea Level Pressure  
Sea Level Pressure 30.19 in    
Wind  
Wind Speed 8 mph (WSW)    
Max Wind Speed 25 mph    
Max Gust Speed 33 mph    
Visibility 10 miles    
Events      
T = Trace of Precipitation, MM = Missing Value Source: NWS Daily Summary

Daily Weather History Graph

Daily Weather History Graph

Search for Another Location

Airport:

Trip Planner

Search our weather history database for the weather conditions in past years. The results will help you decide how hot, cold, wet, or windy it might be!

Date:

Astronomy

Dec. 04, 2012 Rise Set
Actual Time 7:08 AM MST 4:25 PM MST
Civil Twilight 6:37 AM MST 4:56 PM MST
Nautical Twilight 6:02 AM MST 5:31 PM MST
Astronomical Twilight 5:28 AM MST 6:05 PM MST
Moon 10:19 PM MST (12/4) 11:00 AM MST (12/4)
Length of Visible Light 10h 19m
Length of Day
9h 16m
Waning Gibbous, 69% of the Moon is Illuminated
Dec 4
Waning Gibbous
Dec 6
Last Quarter
Dec 13
New
Dec 19
First Quarter
Dec 28
Full

Hourly Weather History & Observations

Time (MST) Temp. Windchill Dew Point Humidity Pressure Visibility Wind Dir Wind Speed Gust Speed Precip Events Conditions
12:53 AM 35.1 °F 27.9 °F 14.0 °F 42% 30.19 in 10.0 mi West 9.2 mph - N/A   Clear
1:53 AM 34.0 °F 26.0 °F 15.1 °F 46% 30.21 in 10.0 mi WNW 10.4 mph - N/A   Clear
2:53 AM 34.0 °F 26.0 °F 16.0 °F 48% 30.22 in 10.0 mi NW 10.4 mph - N/A   Clear
3:53 AM 30.9 °F 23.5 °F 16.0 °F 54% 30.25 in 10.0 mi WNW 8.1 mph - N/A   Clear
4:53 AM 28.0 °F 21.7 °F 15.1 °F 58% 30.29 in 10.0 mi NW 5.8 mph - N/A   Clear
5:53 AM 21.0 °F - 12.9 °F 71% 30.34 in 10.0 mi Calm Calm - N/A   Clear
6:53 AM 24.1 °F 16.0 °F 14.0 °F 65% 30.35 in 10.0 mi SE 6.9 mph - N/A   Clear
7:53 AM 23.0 °F 17.0 °F 15.1 °F 72% 30.35 in 10.0 mi East 4.6 mph - N/A   Clear
8:53 AM 30.0 °F 26.5 °F 16.0 °F 56% 30.33 in 10.0 mi SE 3.5 mph - N/A   Clear
9:53 AM 39.9 °F 35.8 °F 17.1 °F 40% 30.30 in 10.0 mi ESE 5.8 mph - N/A   Clear
10:53 AM 46.0 °F 43.1 °F 17.1 °F 31% 30.24 in 10.0 mi SSE 5.8 mph - N/A   Clear
11:53 AM 52.0 °F - 12.9 °F 21% 30.19 in 10.0 mi South 10.4 mph - N/A   Clear
12:53 PM 55.9 °F - 5.0 °F 13% 30.13 in 10.0 mi SW 10.4 mph - N/A   Clear
1:53 PM 55.9 °F - 3.0 °F 12% 30.11 in 10.0 mi SW 5.8 mph - N/A   Scattered Clouds
2:53 PM 55.9 °F - 7.0 °F 14% 30.09 in 10.0 mi WSW 9.2 mph 17.3 mph N/A   Clear
3:53 PM 54.0 °F - 18.0 °F 24% 30.09 in 10.0 mi WSW 16.1 mph 23.0 mph N/A   Clear
4:53 PM 51.1 °F - 18.0 °F 27% 30.11 in 10.0 mi West 8.1 mph - N/A   Clear
5:53 PM 50.0 °F - 19.9 °F 31% 30.14 in 10.0 mi West 8.1 mph - N/A   Clear
6:53 PM 50.0 °F - 21.0 °F 32% 30.15 in 10.0 mi West 10.4 mph - N/A   Clear
7:53 PM 48.0 °F - 23.0 °F 37% 30.15 in 10.0 mi West 5.8 mph - N/A   Clear
8:53 PM 46.9 °F - 25.0 °F 42% 30.14 in 10.0 mi West 8.1 mph - N/A   Clear
9:53 PM 46.9 °F - 26.1 °F 44% 30.11 in 10.0 mi West 5.8 mph - N/A   Clear
10:53 PM 46.9 °F - 28.0 °F 48% 30.07 in 10.0 mi West 10.4 mph - N/A   Clear
11:53 PM 48.0 °F - 28.9 °F 48% 30.05 in 10.0 mi Variable 4.6 mph - N/A   Clear